Miscellaneous Local Product
Issued by NWS Hastings, NE

Home | Current Version | Previous Version | Graphics & Text | Print | Product List | Glossary Off
Versions: 1 2 3 4 5 6 7 8 9 10 11 12 13 14 15 16 17 18 19 20 21 22 23 24 25 26 27 28 29 30 31 32 33 34 35 36 37 38 39 40 41 42 43 44 45 46 47 48 49 50

000
AXUS43 KGID 241702
MISGRI

GID CWA HOURLY WEATHER ROUNDUP
NATIONAL WEATHER SERVICE HASTINGS NE
1200 PM CDT SUN JUL 24 2016

NOTE: "FAIR" INDICATES FEW OR NO CLOUDS BELOW 12,000 FEET WITH NO
SIGNIFICANT WEATHER AND/OR OBSTRUCTIONS TO VISIBILITY.

...SOUTH CENTRAL NEBRASKA...

CITY           SKY/WX    TMP DP  RH WIND       PRES   REMARKS
GRAND ISLAND   CLOUDY    79  64  60 VRB6      30.07R
HASTINGS       CLOUDY    78  64  61 NE8       30.07R
KEARNEY        CLOUDY    79  61  53 N7        30.11R
ORD            CLOUDY    78  64  61 NW5       30.11R
YORK           CLOUDY    77  66  69 CALM      30.04F
AURORA         PTSUNNY   80  64  57 E3        30.05S
LEXINGTON      MOSUNNY   80  59  48 NE9       30.11F
HOLDREGE       PTSUNNY   80  59  48 NE14      30.09R
HEBRON         DRIZZLE   78  68  71 N10       30.00S

...NEBRASKA PANHANDLE...

CITY           SKY/WX    TMP DP  RH WIND       PRES   REMARKS
CHADRON        SUNNY     81  44  27 E13       30.17R
ALLIANCE       MOSUNNY   77  55  46 E16       30.20R
SCOTTSBLUFF    SUNNY     81  54  39 E13       30.17R
SIDNEY         SUNNY     79  53  40 E16       30.21R

...WESTERN AND NORTH CENTRAL NEBRASKA...

CITY           SKY/WX    TMP DP  RH WIND       PRES   REMARKS
VALENTINE      CLOUDY    80  50  34 CALM      30.15R
AINSWORTH      CLOUDY    78  58  48 E5        30.15S
ONEILL         CLOUDY    79  57  45 NW7       30.13R
BROKEN BOW     CLOUDY    78  63  59 N9        30.15R
IMPERIAL       PTSUNNY   82  52  35 E13       30.16R
NORTH PLATTE   CLOUDY    77  57  50 E7        30.15S
MCCOOK         SUNNY     84  59  42 NE22      30.08F

...EASTERN NEBRASKA...

CITY           SKY/WX    TMP DP  RH WIND       PRES   REMARKS
NORFOLK        CLOUDY    83  61  47 NE9       30.04S
SO SIOUX CITY  CLOUDY    86  61  42 N10       30.00S
TEKAMAH        MOSUNNY   84  65  52 N12       30.00R
COLUMBUS       PTSUNNY   81  61  50 E8        30.04F
ALBION         CLOUDY    77  65  65 NE6       30.08R
OMAHA EPPLEY   CLOUDY    85  66  53 N8        29.98R
OFFUTT AFB     CLOUDY    87  62  43 NE9       29.98S
MILLARD        CLOUDY    84  64  49 NE5       29.99R
LINCOLN        CLOUDY    83  63  50 N12       30.01S
NEBRASKA CITY  PTSUNNY   84  70  63 N9        29.97R
BEATRICE       CLOUDY    83  68  60 N10       29.98R
FALLS CITY     CLOUDY    87  79  76 N14       29.92R HX 101

...NORTHERN KANSAS...

CITY           SKY/WX    TMP DP  RH WIND       PRES   REMARKS
GOODLAND       SUNNY     85  59  41 E17       30.12R
HILL CITY      CLOUDY    78  71  79 CALM      30.01R
NORTON         SUNNY     84  54  34 NE16G23   30.03S
SMITH CENTER   MOSUNNY   73  66  78 NE10      30.01R
BELOIT         SUNNY     79  72  78 CALM      29.97R
HAYS           CLOUDY    88  64  45 E15       29.99F
RUSSELL        MOSUNNY   90  68  48 NE10      29.98R HX  94
CONCORDIA      MOSUNNY   77  71  82 W3        29.98R
SALINA         CLOUDY    89  71  55 VRB6      29.95R HX  95
TOPEKA           N/A     90  75  61 N9        29.94R HX 100



USA.gov is the U.S. government's official web portal to all federal, state and local government web resources and services.